Weather History for Wenatchee, WA

Change the Weather History Date:

Tuesday, March 20, 2012

  Actual Average Record
Temperature  
Mean Temperature 37 °F 40 °F  
Max Temperature 45 °F 50 °F 70 °F (1960)
Min Temperature 29 °F 31 °F 21 °F (2014)
Degree Days  
Heating Degree Days 28 25  
Month to date heating degree days 559 554  
Since 1 July heating degree days 5659 5753  
Cooling Degree Days 0 0  
Month to date cooling degree days 0 0  
Year to date cooling degree days 0 0  
Moisture  
Dew Point 29 °F    
Average Humidity 60    
Maximum Humidity 79    
Minimum Humidity 35    
Precipitation  
Precipitation 0.18 in 0.05 in 0.65 in (1984)
Month to date precipitation 1.44 1.08  
Year to date precipitation 4.95 4.41  
Snow  
Snow 1.10 in 0.20 in - ()
Month to date snowfall 2.3 3.4  
Since 1 July snowfall 29.8 49.8  
Snow Depth 0.00 in    
Sea Level Pressure  
Sea Level Pressure 29.68 in    
Wind  
Wind Speed 11 mph (SSW)    
Max Wind Speed 22 mph    
Max Gust Speed 47 mph    
Visibility 10 miles    
Events      
T = Trace of Precipitation, MM = Missing Value Source: NWS Daily Summary

Daily Weather History Graph

Daily Weather History Graph

Search for Another Location

Airport:

Trip Planner

Search our weather history database for the weather conditions in past years. The results will help you decide how hot, cold, wet, or windy it might be!

Date:

Astronomy

Mar. 20, 2012 Rise Set
Actual Time 7:02 AM PDT 7:14 PM PDT
Civil Twilight 6:31 AM PDT 7:45 PM PDT
Nautical Twilight 5:56 AM PDT 8:21 PM PDT
Astronomical Twilight 5:18 AM PDT 8:58 PM PDT
Moon 5:52 AM PDT (3/20) 5:44 PM PDT (3/20)
Length of Visible Light 13h 13m
Length of Day
12h 11m
Waning Crescent, 3% of the Moon is Illuminated
Mar 20
Waning Crescent
Mar 22
New
Mar 30
First Quarter
Apr 6
Full
Apr 13
Last Quarter

Hourly Weather History & Observations

Time (PDT) Temp. Windchill Dew Point Humidity Pressure Visibility Wind Dir Wind Speed Gust Speed Precip Events Conditions
12:55 AM 42.1 °F 36.6 °F 25.0 °F 51% 29.70 in 10.0 mi ESE 9.2 mph - N/A   Mostly Cloudy
1:55 AM 42.1 °F 35.2 °F 27.0 °F 55% 29.66 in 10.0 mi ESE 12.7 mph - N/A   Overcast
2:55 AM 39.9 °F 35.8 °F 30.9 °F 70% 29.64 in 10.0 mi ESE 5.8 mph - N/A   Overcast
3:55 AM 39.0 °F 31.8 °F 33.1 °F 79% 29.63 in 10.0 mi ESE 11.5 mph - N/A   Overcast
4:52 AM 39.2 °F 31.2 °F 32.0 °F 75% 29.56 in 10.0 mi SE 13.8 mph 17.3 mph N/A   Partly Cloudy
4:55 AM 39.0 °F 31.0 °F 32.0 °F 76% 29.58 in 10.0 mi SE 13.8 mph - N/A   Partly Cloudy
5:55 AM 39.0 °F 32.3 °F 32.0 °F 76% 29.55 in 10.0 mi SE 10.4 mph 17.3 mph N/A   Partly Cloudy
6:55 AM 39.0 °F 32.3 °F 32.0 °F 76% 29.53 in 10.0 mi SSE 10.4 mph - N/A   Clear
7:55 AM 41.0 °F 35.8 °F 32.0 °F 70% 29.53 in 10.0 mi East 8.1 mph - N/A   Clear
8:55 AM 43.0 °F 37.7 °F 33.1 °F 68% 29.54 in 10.0 mi East 9.2 mph - N/A   Mostly Cloudy
9:55 AM 46.0 °F 42.5 °F 33.1 °F 61% 29.54 in 10.0 mi SE 6.9 mph - N/A   Partly Cloudy
11:55 AM 46.9 °F - 28.0 °F 48% 29.64 in 10.0 mi WNW 16.1 mph 21.9 mph N/A   Mostly Cloudy
12:55 PM 50.0 °F - 24.1 °F 36% 29.65 in 10.0 mi West 21.9 mph 29.9 mph N/A   Clear
1:55 PM 50.0 °F - 23.0 °F 35% 29.68 in 10.0 mi WSW 13.8 mph 25.3 mph N/A   Scattered Clouds
2:55 PM 48.0 °F - 23.0 °F 37% 29.71 in 10.0 mi West 17.3 mph 29.9 mph N/A   Mostly Cloudy
3:55 PM 46.9 °F - 26.1 °F 44% 29.74 in 10.0 mi WNW 13.8 mph 19.6 mph N/A   Clear
4:05 PM 46.4 °F 40.7 °F 26.6 °F 46% 29.71 in 10.0 mi WNW 12.7 mph 24.2 mph N/A   Partly Cloudy
4:55 PM 45.0 °F 40.6 °F 27.0 °F 49% 29.76 in 10.0 mi NW 8.1 mph - N/A   Mostly Cloudy
5:55 PM 45.0 °F 38.9 °F 21.9 °F 40% 29.79 in 10.0 mi WNW 12.7 mph 26.5 mph N/A   Scattered Clouds
6:55 PM 41.0 °F 36.4 °F 28.0 °F 60% 29.80 in 10.0 mi Variable 6.9 mph - N/A   Mostly Cloudy
7:55 PM 39.0 °F 34.0 °F 28.9 °F 67% 29.84 in 10.0 mi NW 6.9 mph - N/A   Mostly Cloudy
8:55 PM 37.0 °F 31.0 °F 30.0 °F 76% 29.86 in 10.0 mi NW 8.1 mph - N/A   Clear
9:55 PM 36.0 °F 31.1 °F 28.9 °F 76% 29.88 in 10.0 mi NW 5.8 mph - N/A   Clear
11:55 PM 33.1 °F - 27.0 °F 78% 29.91 in 10.0 mi Calm Calm - N/A   Clear